Temperature
19 19 19 19 17 17 18 19 19 19 18 18 18 18 18 17 17 17 17 17 17 17 17 17 17 17 17 17 17 17 17 17 17 17 17 17 17 17 17 17 17 17 17 17 17 17 17 17 17
19 19 19 19 17 17 18 19 18 19 18 18 18 18 17 17 17 17 17 17 17 17 17 17 17 17 17 17 17 17 17 17 17 17 17 17 17 17 17 17 17 17 17 17 17 17 17 17 17
19 19 19 16 17 17 19 19 18 18 19 18 18 17 17 17 17 17 17 17 17 17 17 17 17 17 17 17 17 17 17 17 17 17 17 17 17 16 17 17 17 17 17 17 17 17 17 17 17
19 19 19 17 18 18 18 18 18 18 19 18 18 17 17 17 17 17 17 17 17 17 17 17 17 17 17 17 17 17 17 17 17 16 16 16 16 16 16 16 16 17 17 16 16 16 16 16 16
20 19 17 17 18 18 18 18 19 18 18 18 17 17 17 17 17 17 17 17 17 17 17 17 17 17 17 17 17 16 16 16 16 16 16 16 16 16 16 16 16 16 16 16 16 16 16 16 16
20 17 16 17 18 18 18 19 18 18 18 18 17 17 17 17 17 17 17 17 17 17 17 17 17 17 16 16 16 16 16 16 16 16 16 16 16 16 16 16 16 16 16 16 16 16 16 16 16
19 16 17 18 18 18 19 19 18 18 17 17 17 17 17 17 17 17 17 17 17 17 17 17 17 17 16 16 16 16 16 16 16 16 16 16 16 16 16 16 16 16 16 16 16 16 16 16 16
20 16 17 17 18 18 19 19 18 18 17 17 18 17 17 17 17 17 17 17 17 17 17 17 17 16 16 16 16 16 16 16 16 16 16 16 16 16 16 16 16 16 16 16 16 16 16 16 16
20 16 17 18 18 18 19 18 18 18 18 17 17 18 17 17 17 17 17 17 17 17 17 17 17 16 16 16 16 16 16 16 16 16 16 16 16 16 16 16 16 16 16 16 16 16 16 16 16
19 16 18 18 18 18 18 18 18 18 17 17 17 17 17 17 17 17 17 17 17 17 17 17 16 16 16 16 16 16 16 16 16 16 16 16 16 16 16 16 16 16 16 16 16 16 16 16 16
18 17 18 18 19 19 19 18 18 18 17 17 17 17 17 17 17 17 17 17 17 17 17 16 16 16 16 16 16 16 16 16 16 16 16 16 16 16 16 16 16 16 16 16 16 16 16 16 16
18 18 18 19 19 19 18 18 18 17 18 18 18 18 17 17 17 17 17 17 17 17 17 17 17 16 16 16 16 16 16 16 16 16 16 16 16 16 16 16 16 16 16 16 16 16 16 15 15
18 18 19 19 19 19 18 18 17 17 18 18 18 18 17 17 17 17 17 17 17 17 17 17 17 16 16 16 16 16 16 16 16 16 16 16 16 16 16 16 16 16 16 16 16 15 15 15 15
18 18 18 19 19 18 18 17 17 17 18 18 17 17 17 17 17 17 17 17 17 17 17 17 17 16 16 16 16 16 16 16 16 16 16 16 16 16 16 16 16 16 16 16 16 15 15 15 15
19 18 18 18 18 18 18 17 17 17 17 17 17 17 17 17 17 17 17 17 17 17 17 17 17 16 16 16 16 16 16 16 16 16 16 16 16 15 15 16 16 15 15 15 15 15 15 15 15
18 17 17 18 18 18 18 17 17 17 17 17 17 17 17 17 17 17 17 17 17 17 17 17 17 16 16 16 16 16 16 16 16 16 16 16 16 16 16 15 15 15 15 15 15 15 15 15 15
17 17 17 18 18 18 18 17 17 17 17 17 17 17 17 17 17 17 17 17 17 17 17 17 17 16 16 16 16 16 16 16 16 16 16 16 16 15 15 15 15 15 15 15 15 15 15 15 15
17 17 17 17 18 18 17 17 16 17 17 17 17 17 17 17 18 18 17 17 17 17 17 17 16 16 16 16 16 16 16 16 16 16 16 16 15 15 15 15 15 15 15 15 15 15 15 15 15
18 17 17 17 18 17 17 17 16 17 16 16 17 17 17 18 18 18 17 17 17 17 17 17 16 16 16 16 16 16 16 16 16 15 15 15 15 15 15 15 15 15 15 15 15 15 15 15 15
18 17 17 17 18 18 17 16 16 16 16 17 17 17 17 18 18 18 18 17 17 17 17 16 16 16 16 16 16 16 16 16 15 15 15 15 15 15 15 15 15 15 15 15 15 15 15 15 14
18 17 17 17 17 17 17 17 16 16 17 17 17 17 18 18 18 18 18 18 17 17 17 17 16 16 16 16 16 16 16 15 15 15 15 15 15 15 15 15 15 15 15 15 15 15 15 15 15
17 18 18 18 17 16 17 16 16 16 16 16 17 17 18 18 18 18 18 18 18 17 17 17 16 16 16 16 16 16 16 15 15 15 15 15 15 15 15 15 15 15 15 15 15 15 15 15 15
18 18 18 17 16 16 16 16 15 15 16 16 16 17 18 18 18 18 18 18 18 17 17 17 16 16 16 16 16 16 16 15 15 15 15 15 15 15 15 15 15 15 15 15 15 15 15 15 15
18 17 17 15 15 16 16 16 15 15 16 16 17 17 18 18 18 18 18 18 18 17 17 17 16 16 16 16 16 16 16 15 15 15 15 15 15 15 15 15 15 15 15 15 15 15 15 14 14
18 16 16 16 15 15 16 16 16 16 16 17 17 18 18 18 18 18 18 18 18 17 17 17 17 16 16 16 16 16 16 15 15 15 15 15 15 15 15 15 15 15 15 15 14 14 14 14 14
17 17 16 16 15 15 16 16 16 17 18 18 18 19 19 18 18 18 18 18 18 17 17 17 17 16 16 16 16 16 16 15 15 15 15 15 15 15 15 15 14 14 14 14 14 14 14 14 14
17 16 16 15 16 15 15 16 17 17 17 17 18 18 18 18 18 18 18 18 18 18 17 17 17 16 16 16 16 16 15 15 15 15 15 15 15 15 15 14 14 14 14 14 14 14 14 14 14
17 15 14 15 15 15 16 16 16 17 17 17 16 17 18 19 18 18 18 18 18 18 17 17 17 17 16 16 16 16 16 15 15 15 15 15 15 15 15 14 14 14 14 14 14 14 14 14 13
16 16 15 14 15 15 15 16 17 17 17 17 17 18 18 18 18 18 18 18 18 18 17 17 17 17 16 16 16 16 16 15 15 15 15 15 15 15 14 14 14 14 14 14 14 14 13 13 13
18 17 15 16 15 14 15 16 18 17 17 17 18 19 19 19 19 19 18 18 18 18 17 17 17 17 16 16 16 16 16 15 15 15 15 15 15 15 14 14 14 14 14 14 13 13 13 13 13
Wind_Speed
3 4 3 4 5 5 2 2 0 2 3 2 5 6 7 5 3 3 0 1 3 3 5 7 9 10 11 11 11 12 12 12 12 12 11 11 11 11 11 11 10 10 10 11 11 10 10 10 10
2 2 4 4 4 3 2 2 1 2 4 5 5 6 6 5 3 3 2 2 4 5 5 7 10 10 10 11 11 11 11 11 11 11 10 10 10 10 10 10 10 9 10 10 10 10 10 10 10
2 3 4 4 3 3 2 1 3 4 4 3 4 5 4 3 3 2 2 4 5 6 6 7 9 9 9 10 10 11 10 10 10 10 10 10 9 9 9 9 8 8 9 9 9 9 10 10 9
3 4 4 5 3 0 1 2 4 5 4 5 4 5 3 3 2 3 5 5 6 5 6 7 9 9 9 10 10 10 10 10 10 10 9 9 9 8 8 8 8 8 8 8 9 9 9 9 9
4 4 5 4 2 2 1 1 2 4 3 4 4 5 3 4 6 8 7 6 6 4 5 6 8 8 9 9 9 9 9 9 10 9 9 8 8 8 8 8 7 7 8 8 8 8 8 9 9
4 4 5 2 1 2 2 1 3 5 5 4 5 4 3 3 5 6 6 5 5 4 4 6 7 8 9 9 9 8 8 8 8 8 8 7 7 7 7 7 8 8 8 8 8 8 8 9 9
4 4 4 3 2 2 1 2 4 5 6 3 3 5 3 2 4 6 6 6 5 5 5 6 7 8 8 8 8 8 7 7 8 7 7 7 6 6 7 7 7 7 8 8 9 8 9 9 9
4 5 4 2 3 1 1 3 4 5 5 3 3 5 4 4 5 7 7 6 5 4 4 5 6 7 8 7 7 8 8 8 8 8 8 8 8 8 8 7 7 7 8 8 8 8 9 9 9
4 5 3 3 4 2 2 3 3 4 6 4 3 3 5 8 8 8 6 4 3 3 3 3 4 5 6 6 7 8 9 9 8 8 9 9 9 9 9 9 8 8 8 8 9 9 10 10 10
4 4 3 2 3 4 3 3 3 4 5 4 5 6 8 8 8 8 6 4 3 1 1 2 3 3 5 5 6 7 7 7 8 8 8 8 8 8 8 10 10 10 10 9 10 10 9 9 9
4 4 2 2 3 4 4 3 3 6 3 3 6 9 8 8 7 7 5 4 3 2 0 2 2 3 4 4 4 4 5 6 6 7 6 6 7 7 8 9 9 9 9 8 9 9 9 8 8
4 3 2 2 3 3 4 4 4 3 2 3 7 9 8 8 7 6 6 4 3 2 1 1 2 2 3 3 3 3 4 4 5 5 5 5 5 5 6 6 7 7 7 7 7 7 8 9 9
4 3 3 4 6 6 7 5 4 3 3 5 8 8 8 7 5 4 4 4 4 3 2 2 2 3 3 3 3 3 3 4 5 5 5 5 4 3 4 5 6 7 7 6 6 6 7 7 8
4 5 4 4 5 3 6 4 4 1 4 6 8 7 6 6 6 5 5 4 4 4 4 3 3 3 4 3 3 3 4 5 6 6 5 6 5 4 4 4 5 6 6 6 6 6 6 6 7
5 6 5 4 3 2 6 4 1 2 5 6 6 6 5 5 6 6 6 5 5 5 4 4 3 4 4 4 4 4 4 5 5 5 6 6 6 5 5 3 4 4 6 7 7 7 7 6 6
4 4 2 2 1 2 5 2 1 3 6 5 5 5 5 4 5 5 5 5 5 5 5 4 4 5 4 4 4 5 5 6 6 6 7 7 7 7 6 4 3 5 6 6 5 4 5 6 6
3 3 2 1 1 2 4 3 2 4 5 5 5 5 5 4 4 5 5 6 6 6 5 4 4 5 5 5 5 6 6 6 6 7 7 7 7 7 7 5 4 6 6 4 4 5 4 5 5
3 3 2 3 1 3 3 3 3 5 6 5 5 5 5 6 7 5 5 5 6 5 5 5 5 5 5 4 4 4 4 5 6 6 6 6 7 7 7 6 6 6 4 4 4 5 5 4 5
4 4 2 2 2 3 3 4 4 5 5 6 5 6 7 7 5 4 5 6 6 5 5 5 5 4 4 3 3 3 2 2 3 5 6 7 7 7 7 5 5 5 4 4 4 4 6 4 3
5 4 2 0 1 3 2 3 3 5 7 7 8 8 9 6 5 5 6 7 7 7 6 5 5 5 4 3 3 3 3 2 2 3 6 7 7 6 6 5 4 4 4 5 4 4 3 3 3
3 5 5 3 2 3 2 3 3 3 4 5 6 7 8 10 9 8 8 8 8 8 8 7 5 5 4 4 4 4 4 3 3 3 3 5 6 7 7 6 5 4 4 3 3 3 4 3 3
2 4 5 4 3 1 1 2 6 4 5 7 7 7 8 8 8 8 9 9 9 9 7 6 5 5 5 5 5 5 4 3 1 1 2 4 6 7 7 6 6 5 4 4 3 3 3 3 2
4 3 4 3 3 1 1 2 7 2 6 9 9 10 10 9 9 10 10 10 8 7 7 6 5 5 5 5 6 6 4 3 2 2 4 3 4 6 7 7 6 5 4 4 4 4 4 3 3
5 6 6 5 4 1 3 3 6 5 8 7 9 10 10 10 9 8 8 7 7 6 6 6 6 5 5 5 6 7 7 5 5 4 3 2 2 3 5 6 6 5 4 4 4 4 4 3 4
5 6 3 3 2 4 2 3 8 8 8 9 10 11 10 10 9 9 9 9 9 9 8 7 7 6 5 6 6 7 7 7 6 5 4 3 2 1 2 3 4 4 4 5 5 5 4 4 4
4 6 5 4 4 4 1 5 7 6 5 6 7 7 8 9 9 10 11 11 10 10 9 8 8 6 6 6 6 5 6 5 4 4 4 4 2 2 2 4 4 5 5 6 6 4 4 4 4
5 3 5 5 2 2 5 6 7 2 1 2 4 6 8 10 10 10 10 10 11 11 10 9 9 7 7 7 6 6 6 5 5 4 4 3 3 3 4 5 4 5 5 6 5 4 4 4 4
5 7 5 4 3 3 5 5 5 4 2 2 4 6 8 9 9 9 10 10 10 10 8 8 8 8 7 7 6 6 5 5 5 5 5 4 3 4 5 4 4 4 5 5 5 4 3 5 4
4 4 4 4 4 4 3 6 6 7 6 6 6 7 8 9 10 10 9 9 8 8 8 8 8 6 6 6 5 6 5 5 5 5 5 4 4 4 4 4 4 4 4 4 5 4 4 5 4
6 7 7 5 4 4 3 7 5 5 6 6 6 6 7 8 9 9 9 8 8 9 8 8 8 7 7 7 6 6 5 5 5 5 4 4 5 4 4 5 5 4 4 4 5 4 4 4 3
Wind_Direction
65 90 85 62 57 55 51 342 31 92 71 61 66 78 86 75 83 118 80 83 101 87 98 110 109 104 103 102 101 100 97 97 96 93 93 92 92 92 89 86 86 84 82 81 78 76 72 70 68
106 100 63 64 82 75 359 331 79 90 129 124 72 68 71 68 66 94 92 88 91 87 90 105 107 105 105 103 103 101 98 96 97 97 95 91 90 90 88 87 86 82 80 79 74 72 70 66 65
115 64 82 73 88 134 144 53 115 84 92 91 77 57 70 73 84 106 126 110 91 86 86 97 103 107 108 104 101 101 100 96 95 95 94 92 89 87 84 83 83 80 80 79 73 68 66 64 64
87 50 57 69 73 32 156 145 129 113 71 53 87 71 61 30 92 119 116 104 95 84 87 101 106 106 108 105 101 99 98 93 93 93 92 91 87 84 82 81 78 75 77 78 76 71 67 63 64
62 76 64 59 39 13 41 151 115 100 87 63 81 86 52 19 90 109 107 101 100 85 82 95 106 106 104 104 101 98 93 91 91 91 88 87 84 83 80 76 72 71 72 73 71 70 66 61 62
58 69 82 90 50 29 19 66 95 84 90 85 87 94 62 55 94 104 102 101 95 89 75 71 89 96 96 98 97 93 90 88 86 84 82 80 76 73 72 70 66 65 66 64 64 64 61 61 63
102 90 106 121 102 47 50 73 101 108 95 82 97 96 97 95 97 100 99 92 81 73 66 55 59 68 73 81 88 85 81 82 82 77 72 69 65 63 62 62 62 59 57 56 58 62 64 65 64
115 99 87 101 125 97 51 73 78 97 100 85 85 123 144 152 118 97 88 82 73 62 55 51 49 53 54 54 68 75 74 73 73 72 67 60 53 50 46 43 48 51 48 49 53 60 67 69 66
88 77 120 173 159 146 85 87 59 62 89 71 66 104 125 126 117 105 94 78 73 71 43 44 44 46 50 50 55 58 60 58 59 59 59 53 44 39 37 38 46 49 47 47 54 62 67 68 63
78 108 183 193 165 134 102 99 111 92 81 79 82 89 110 119 121 124 129 132 132 133 48 51 51 47 48 54 55 51 50 50 54 55 53 49 45 41 42 42 46 51 54 56 57 62 64 63 58
86 130 145 86 113 119 111 93 88 116 109 162 150 140 133 128 127 134 143 149 160 162 123 75 78 64 61 57 59 49 49 50 51 53 55 54 50 45 43 39 39 43 51 54 54 57 59 62 61
89 62 102 108 100 95 107 102 80 92 163 160 148 143 141 144 146 150 153 157 150 140 139 108 107 85 77 78 68 55 52 55 53 53 57 59 52 46 41 38 38 43 49 58 60 63 65 67 65
82 77 61 86 81 89 91 88 99 61 65 108 126 133 146 151 146 140 145 142 135 138 140 136 120 113 95 83 75 68 58 66 66 60 58 67 65 53 47 42 42 44 54 65 66 68 69 69 67
107 90 75 70 74 78 97 81 85 89 108 123 138 149 160 160 155 146 144 140 144 154 154 138 125 113 101 95 87 74 68 72 73 64 66 77 76 70 62 50 44 44 56 67 74 75 76 71 71
93 80 52 36 63 87 97 63 90 168 136 140 153 159 163 172 166 168 170 161 157 155 145 139 132 107 105 101 89 81 74 76 69 64 72 79 80 79 77 66 52 49 64 74 76 72 76 75 71
72 73 65 338 71 106 111 160 234 155 145 156 164 164 170 183 182 182 174 163 156 147 141 142 131 115 107 98 87 79 74 72 66 70 72 76 81 84 81 72 57 61 72 77 79 70 74 71 70
57 113 159 262 176 128 132 190 210 160 156 175 182 180 181 185 190 188 180 171 158 151 141 126 117 119 115 102 89 78 71 66 64 65 65 69 76 81 83 75 63 70 73 69 81 70 80 81 78
176 161 176 214 212 132 155 200 196 182 179 193 195 192 194 199 209 195 181 168 153 145 135 127 117 114 114 100 84 68 56 49 54 55 58 67 72 79 81 75 63 70 75 66 70 80 69 76 84
145 144 174 232 191 142 183 209 215 195 195 205 208 203 206 209 207 189 173 159 149 145 142 144 138 136 125 106 101 94 77 44 42 45 54 65 72 76 76 74 64 66 77 80 83 84 77 63 64
130 137 164 348 121 150 192 248 242 207 208 209 208 210 211 205 193 188 175 169 168 166 163 158 153 149 142 128 124 118 114 87 65 47 52 55 66 73 79 78 77 72 81 75 74 84 87 60 40
153 174 185 177 69 55 89 316 272 247 224 222 218 213 210 204 198 195 189 185 174 175 178 175 169 158 149 135 113 90 70 58 46 38 39 38 62 72 77 82 81 75 83 91 82 91 105 104 44
203 202 165 145 113 284 136 269 274 241 240 229 222 213 213 209 199 193 191 189 187 187 178 170 167 161 156 146 138 135 133 130 144 106 72 53 62 68 73 79 80 77 77 83 81 78 88 109 93
181 123 118 124 127 64 351 200 280 244 237 236 226 218 213 206 198 196 196 194 190 182 173 169 163 161 161 156 151 141 134 137 119 91 83 66 54 60 68 75 76 74 72 75 74 76 76 87 105
121 81 66 58 74 300 226 191 270 232 223 228 222 217 208 201 198 195 190 179 181 176 169 167 163 167 163 158 155 154 153 148 130 117 108 86 60 49 58 75 78 78 74 72 75 79 82 81 87
98 95 52 11 4 260 237 212 250 242 227 215 214 212 204 194 190 186 181 179 181 180 179 174 168 173 172 162 163 165 164 159 156 153 147 133 106 75 60 77 82 81 81 81 80 76 73 77 84
161 138 152 189 225 277 275 241 258 260 245 217 207 202 192 190 190 190 189 185 185 184 180 174 174 177 176 170 171 167 164 161 163 162 155 150 150 150 122 107 96 90 90 87 82 73 68 72 78
143 165 161 137 164 261 273 283 302 307 325 192 185 182 191 194 192 192 188 185 185 184 184 178 176 180 181 175 169 167 167 164 163 160 150 147 145 133 117 112 102 93 91 91 89 78 69 73 71
145 146 112 129 159 256 287 277 258 270 248 215 197 199 202 196 193 191 188 188 186 183 177 170 174 182 179 172 172 170 171 171 163 153 151 151 142 123 122 116 108 100 94 95 92 82 74 79 66
130 131 132 135 159 171 264 275 234 226 217 210 213 208 200 196 194 193 192 186 178 171 170 172 177 175 171 171 165 158 164 159 152 155 160 157 144 137 135 132 124 116 108 103 102 96 90 86 72
171 174 156 162 202 180 196 268 275 245 224 210 215 212 199 195 195 191 183 171 170 172 173 175 179 180 177 170 162 161 158 153 153 160 164 152 147 141 136 130 127 126 119 115 117 117 107 106 100
Height
1507 1507 1508 1510 1513 1521 1524 1520 1516 1516 1517 1518 1517 1518 1520 1523 1527 1533 1530 1529 1530 1530 1531 1531 1532 1532 1532 1533 1533 1533 1534 1534 1534 1534 1535 1535 1536 1536 1536 1536 1537 1537 1537 1537 1538 1538 1539 1539 1539
1507 1508 1510 1510 1518 1529 1526 1518 1517 1516 1517 1518 1519 1520 1521 1525 1526 1528 1529 1530 1531 1531 1532 1533 1533 1534 1534 1534 1534 1535 1535 1535 1536 1536 1536 1537 1537 1537 1537 1538 1538 1538 1538 1538 1539 1539 1540 1540 1540
1507 1508 1510 1512 1521 1527 1524 1518 1517 1517 1518 1519 1521 1522 1524 1527 1528 1529 1530 1531 1532 1533 1534 1534 1535 1535 1535 1535 1536 1536 1537 1537 1537 1537 1538 1538 1538 1538 1539 1539 1539 1539 1540 1540 1540 1540 1541 1541 1541
1508 1510 1511 1517 1523 1521 1519 1517 1517 1518 1519 1520 1522 1525 1527 1529 1529 1530 1531 1533 1534 1535 1535 1536 1536 1536 1537 1537 1538 1538 1538 1538 1539 1539 1539 1539 1539 1540 1540 1540 1540 1541 1541 1541 1541 1541 1542 1542 1543
1509 1510 1516 1523 1523 1519 1518 1518 1518 1518 1520 1522 1523 1527 1529 1531 1531 1532 1533 1534 1535 1536 1537 1538 1538 1538 1539 1539 1540 1540 1540 1540 1540 1541 1541 1541 1541 1541 1541 1542 1542 1542 1542 1542 1542 1542 1543 1543 1544
1510 1511 1524 1529 1524 1520 1518 1518 1519 1520 1522 1524 1525 1528 1531 1533 1533 1534 1535 1536 1537 1538 1539 1540 1540 1540 1541 1541 1542 1542 1542 1542 1542 1542 1542 1542 1542 1542 1543 1543 1543 1543 1543 1544 1544 1544 1544 1544 1545
1511 1516 1524 1525 1525 1522 1520 1519 1520 1521 1523 1526 1527 1529 1532 1534 1535 1536 1537 1538 1539 1540 1541 1542 1542 1542 1543 1543 1543 1544 1544 1544 1544 1544 1544 1544 1544 1544 1544 1544 1544 1545 1545 1545 1545 1545 1546 1546 1546
1510 1516 1524 1526 1525 1524 1521 1521 1522 1523 1525 1527 1528 1530 1533 1535 1536 1538 1539 1540 1541 1543 1544 1544 1545 1545 1545 1545 1545 1545 1546 1546 1546 1545 1545 1545 1546 1546 1546 1546 1546 1546 1546 1547 1547 1547 1547 1547 1547
1511 1520 1527 1525 1524 1523 1521 1522 1523 1525 1526 1527 1529 1531 1533 1535 1537 1539 1540 1542 1543 1544 1545 1546 1547 1547 1547 1547 1548 1548 1548 1547 1547 1547 1547 1547 1547 1547 1547 1547 1548 1548 1548 1548 1548 1548 1548 1548 1549
1512 1523 1522 1519 1519 1520 1522 1523 1524 1526 1527 1529 1530 1532 1534 1536 1538 1540 1541 1543 1544 1546 1547 1548 1549 1549 1549 1549 1550 1550 1549 1549 1549 1549 1549 1549 1549 1549 1549 1549 1549 1549 1549 1550 1550 1550 1550 1550 1550
1513 1519 1518 1519 1519 1520 1522 1524 1525 1527 1530 1530 1531 1533 1535 1537 1539 1541 1543 1544 1546 1547 1548 1550 1550 1551 1551 1551 1551 1551 1551 1551 1551 1551 1551 1551 1551 1551 1551 1551 1551 1551 1551 1551 1551 1551 1551 1551 1551
1515 1518 1518 1520 1520 1522 1523 1525 1527 1528 1530 1531 1532 1534 1536 1538 1540 1542 1544 1545 1547 1548 1550 1551 1552 1552 1552 1553 1553 1553 1553 1553 1553 1553 1553 1553 1553 1553 1553 1553 1553 1553 1553 1553 1553 1553 1553 1553 1553
1517 1519 1520 1521 1522 1523 1524 1526 1528 1530 1531 1532 1533 1535 1537 1539 1541 1543 1545 1546 1548 1549 1551 1552 1553 1553 1554 1554 1554 1554 1555 1555 1555 1555 1555 1555 1555 1554 1554 1554 1554 1554 1554 1554 1554 1554 1554 1554 1554
1519 1520 1522 1523 1523 1525 1526 1529 1530 1532 1532 1534 1535 1536 1538 1540 1542 1544 1546 1547 1549 1550 1551 1553 1554 1554 1555 1555 1556 1556 1556 1556 1556 1556 1556 1556 1556 1556 1556 1555 1555 1555 1555 1555 1555 1555 1556 1556 1556
1520 1523 1525 1525 1525 1527 1528 1533 1532 1532 1533 1534 1536 1537 1539 1541 1543 1544 1546 1548 1549 1551 1552 1553 1554 1555 1556 1556 1557 1557 1557 1558 1558 1558 1558 1558 1558 1557 1557 1557 1556 1556 1556 1556 1556 1557 1557 1557 1557
1522 1528 1533 1529 1527 1528 1532 1538 1533 1533 1534 1535 1536 1538 1540 1541 1543 1545 1547 1548 1550 1551 1553 1554 1555 1556 1557 1557 1558 1558 1559 1559 1559 1559 1559 1559 1559 1559 1558 1558 1558 1558 1558 1558 1558 1558 1558 1559 1559
1529 1535 1535 1532 1528 1528 1532 1536 1533 1534 1534 1535 1536 1538 1539 1541 1543 1545 1547 1549 1550 1552 1553 1555 1556 1557 1558 1558 1559 1559 1560 1560 1560 1560 1560 1560 1560 1560 1559 1559 1559 1559 1559 1559 1559 1559 1560 1560 1561
1534 1535 1535 1534 1529 1530 1533 1534 1532 1533 1534 1535 1536 1538 1539 1540 1542 1545 1547 1549 1551 1552 1554 1555 1556 1557 1558 1559 1560 1560 1561 1561 1561 1562 1562 1561 1561 1561 1561 1560 1560 1560 1560 1560 1561 1561 1561 1562 1562
1526 1531 1534 1532 1528 1531 1533 1534 1532 1532 1534 1534 1535 1536 1538 1539 1542 1544 1546 1548 1550 1552 1554 1555 1556 1558 1559 1559 1560 1560 1561 1562 1562 1562 1562 1563 1562 1562 1562 1562 1562 1561 1561 1562 1562 1562 1563 1563 1563
1526 1532 1534 1532 1528 1531 1534 1534 1531 1531 1531 1532 1533 1534 1536 1538 1541 1543 1545 1547 1549 1551 1553 1555 1556 1558 1559 1560 1560 1561 1562 1562 1563 1563 1563 1563 1563 1563 1563 1563 1563 1563 1563 1563 1563 1564 1564 1564 1565
1527 1531 1532 1533 1531 1531 1534 1537 1533 1530 1530 1531 1531 1532 1534 1536 1538 1541 1543 1546 1548 1550 1552 1554 1556 1558 1559 1560 1560 1561 1562 1563 1563 1564 1564 1564 1564 1564 1564 1564 1564 1564 1564 1564 1564 1565 1565 1565 1566
1530 1524 1527 1530 1537 1543 1538 1549 1536 1530 1529 1528 1528 1530 1532 1534 1536 1539 1541 1544 1546 1549 1551 1554 1556 1557 1559 1560 1560 1561 1562 1562 1563 1564 1564 1565 1565 1565 1565 1565 1565 1566 1566 1566 1566 1566 1566 1566 1566
1524 1522 1526 1531 1537 1543 1541 1547 1540 1530 1530 1526 1524 1526 1528 1531 1534 1536 1539 1542 1545 1548 1550 1553 1555 1556 1558 1559 1560 1561 1562 1563 1564 1564 1565 1566 1566 1566 1566 1566 1567 1567 1567 1567 1567 1567 1567 1567 1567
1520 1526 1531 1536 1541 1550 1543 1547 1543 1531 1524 1520 1520 1521 1524 1528 1531 1534 1537 1540 1543 1546 1549 1551 1553 1555 1557 1558 1560 1561 1562 1563 1564 1565 1565 1566 1566 1567 1567 1567 1567 1568 1568 1568 1568 1568 1568 1568 1568
1522 1535 1549 1552 1556 1553 1540 1542 1536 1518 1514 1514 1515 1517 1520 1524 1528 1531 1534 1537 1540 1543 1547 1549 1552 1554 1556 1557 1559 1560 1562 1563 1564 1565 1565 1566 1567 1567 1568 1568 1568 1568 1569 1569 1569 1569 1569 1569 1569
1524 1531 1548 1557 1559 1552 1541 1541 1525 1511 1510 1510 1512 1514 1517 1521 1524 1528 1531 1534 1537 1541 1544 1547 1550 1552 1554 1556 1558 1559 1561 1562 1563 1565 1565 1566 1567 1567 1568 1569 1569 1569 1569 1569 1570 1570 1570 1570 1570
1525 1530 1531 1543 1547 1551 1544 1533 1519 1509 1509 1509 1510 1512 1515 1518 1521 1525 1528 1531 1535 1538 1542 1545 1548 1550 1553 1555 1556 1558 1560 1561 1563 1564 1565 1566 1567 1567 1568 1569 1569 1569 1570 1570 1570 1570 1570 1570 1570
1518 1525 1536 1543 1551 1554 1544 1536 1528 1514 1511 1509 1510 1511 1512 1515 1519 1522 1525 1529 1532 1536 1539 1543 1545 1548 1551 1553 1555 1557 1559 1560 1562 1563 1564 1566 1566 1567 1568 1569 1569 1570 1570 1570 1570 1570 1570 1570 1570
1522 1526 1530 1538 1541 1550 1550 1538 1512 1509 1507 1508 1508 1508 1510 1513 1516 1519 1522 1526 1529 1533 1537 1540 1543 1546 1549 1551 1553 1555 1557 1559 1561 1562 1564 1565 1566 1567 1568 1569 1569 1569 1570 1570 1570 1570 1570 1570 1571
1513 1518 1526 1536 1540 1542 1545 1535 1504 1504 1503 1504 1505 1506 1508 1511 1514 1517 1520 1523 1527 1530 1534 1537 1540 1543 1546 1549 1552 1554 1556 1558 1560 1561 1563 1564 1565 1566 1567 1568 1568 1569 1569 1570 1570 1570 1570 1570 1571